Location: Newark
(35.8833°N, 14.5000°E)
Time: 18:44:51
(UTC+00:00)

UNISAT 6 - Visible Passes

Search period start: 19 May 2019 00:00
Search period end: 29 May 2019 00:00
Orbit: 608 x 689 km, 97.8° (Epoch: 18 May)

Date Brightness Start Highest point End Pass type
(mag) Time Alt. Az. Time Alt. Az. Time Alt. Az.
19 May ? 19:55:43 10° NNE 20:00:06 76° ESE 20:01:28 43° S visible
20 May ? 18:47:54 10° ENE 18:49:04 11° E 18:50:05 10° ESE visible
20 May ? 20:21:50 10° N 20:26:05 52° WNW 20:27:51 31° SW visible
21 May ? 19:11:55 10° NE 19:15:20 22° E 19:16:29 20° ESE visible
21 May ? 20:48:20 10° NNW 20:51:58 26° WNW 20:54:14 17° WSW visible
22 May ? 19:37:19 10° NNE 19:41:29 44° E 19:42:52 33° SE visible
22 May ? 21:15:32 10° NW 21:17:44 14° WNW 21:19:55 10° W visible
23 May ? 20:03:10 10° N 20:07:32 87° WNW 20:09:15 36° SSW visible
24 May ? 18:54:25 10° ENE 18:56:35 14° E 18:57:53 12° ESE visible
24 May ? 20:29:24 10° N 20:33:29 41° WNW 20:35:38 23° SW visible
25 May ? 19:19:08 10° NE 19:22:48 27° E 19:24:16 22° SE visible
25 May ? 20:56:03 10° NNW 20:59:20 21° WNW 21:02:02 12° WSW visible
26 May ? 19:44:40 10° NNE 19:48:55 56° E 19:50:39 32° SSE visible
26 May ? 21:23:50 10° NW 21:25:05 11° WNW 21:26:18 10° W visible
27 May ? 20:10:39 10° N 20:14:56 70° WNW 20:17:02 29° SSW visible
28 May ? 19:01:18 10° NE 19:04:04 17° E 19:05:39 14° ESE visible
28 May ? 20:36:59 10° N 20:40:51 33° WNW 20:43:25 18° SW visible
